W3BW-5 Weather Reports


Display with metric or nautical units.
time (UTC)temp
F
wind
direction
speed
MPH
gust
MPH
rain 1hr
in
rain 24hr
in
rain mn
in
humidity
%
barometer
mb
20260504213304 68 252 11.0 14.0 36.63 0.00 0.00 60 1003.8
20260504212304 68 257 10.0 17.0 36.63 0.00 0.00 60 1003.7
20260504211301 68 262 11.0 18.0 36.63 0.00 0.00 59 1003.8
20260504210306 68 277 12.0 17.0 36.63 0.00 0.00 59 1003.8
20260504205301 67 259 12.0 17.0 36.63 0.00 0.00 60 1003.9
20260504204304 67 269 12.0 17.0 36.63 0.00 0.00 60 1003.8
20260504203307 67 240 13.0 20.0 36.63 0.00 0.00 59 1004.1
20260504202307 67 250 12.0 19.0 36.63 0.00 0.00 60 1004.4
20260504201302 67 281 13.0 20.0 36.63 0.00 0.00 60 1004.4
20260504200306 68 283 13.0 16.0 36.63 0.00 0.00 59 1004.6
20260504195304 67 274 14.0 22.0 36.63 0.00 0.00 60 1004.8
20260504194303 67 253 13.0 18.0 36.63 0.00 0.00 60 1005.0
20260504193303 67 256 10.0 14.0 36.63 0.00 0.00 58 1005.1
20260504192304 67 246 12.0 16.0 36.63 0.00 0.00 62 1005.3
20260504191301 66 277 11.0 18.0 36.63 0.00 0.00 60 1005.2
20260504190307 67 255 13.0 19.0 36.63 0.00 0.00 61 1005.5
20260504185301 67 253 9.0 16.0 36.63 0.00 0.00 62 1005.5
20260504184303 66 222 9.0 17.0 36.63 0.00 0.00 61 1005.7
20260504183303 67 259 10.0 15.0 36.63 0.00 0.00 59 1005.8
20260504182304 67 255 10.0 14.0 36.63 0.00 0.00 60 1005.9
20260504181305 67 260 11.0 17.0 36.63 0.00 0.00 60 1006.2
20260504180305 66 239 9.0 14.0 36.63 0.00 0.00 62 1006.3
20260504175304 65 259 10.0 15.0 36.63 0.00 0.00 61 1006.5
20260504174304 66 274 10.0 13.0 36.63 0.00 0.00 60 1006.3
20260504173303 66 263 9.0 16.0 36.63 0.00 0.00 60 1006.5
20260504172312 67 240 9.0 14.0 36.63 0.00 0.00 63 1006.7
20260504171309 65 239 9.0 14.0 36.63 0.00 0.00 60 1006.9
20260504170309 65 281 9.0 18.0 36.63 0.00 0.00 60 1007.0
20260504160306 64 249 9.0 13.0 36.63 0.00 0.00 66 1008.0
20260504150311 61 264 9.0 12.0 36.63 0.00 0.00 74 1008.6
20260504141301 58 248 11.0 17.0 36.63 0.00 0.00 78 1008.9
20260504140307 57 273 11.0 14.0 36.63 0.00 0.00 78 1009.0
20260504130311 56 249 13.0 19.0 36.63 0.00 0.00 83 1009.3
20260504110313 50 257 1.0 4.0 36.63 0.00 0.00 100 1010.1
20260504081301 49 238 4.0 6.0 36.63 0.00 0.00 97 1010.4
20260504080314 49 243 4.0 6.0 36.63 0.00 0.00 97 1010.3
20260504070303 48 195 3.0 4.0 36.63 0.00 0.00 96 1010.5
20260504045301 49 295 4.0 6.0 36.63 0.00 0.00 91 1010.5
20260504044308 49 245 1.0 4.0 36.63 0.00 0.00 91 1010.5
20260504043303 49 287 1.0 3.0 36.63 0.00 0.00 90 1010.4
20260504042305 49 283 3.0 4.0 36.63 0.00 0.00 89 1010.2
20260504041301 49 295 4.0 5.0 36.63 0.00 0.00 90 1010.2
20260504040302 49 291 3.0 5.0 36.63 0.00 0.00 90 1010.1
20260504035301 49 0 0.0 0.0 36.63 0.00 0.00 90 1010.1
20260504034302 48 0 0.0 0.0 36.63 0.00 0.00 90 1009.9
20260504033303 49 0 0.0 0.0 36.63 0.00 0.00 88 1009.7
20260504032304 49 0 0.0 0.0 36.63 0.00 0.00 87 1009.7
20260504031301 49 0 0.0 0.0 36.63 0.00 0.01 86 1009.6
20260504030309 50 0 0.0 0.0 36.63 0.00 0.01 86 1009.5
20260504025301 50 257 1.0 2.0 36.63 0.00 0.01 84 1009.5
20260504024301 50 309 2.0 3.0 36.63 0.00 0.01 85 1009.5
20260504023310 50 326 0.0 2.0 36.63 0.00 0.01 84 1009.4
20260504022304 50 338 1.0 3.0 36.63 0.00 0.01 84 1009.5
20260504021301 51 302 2.0 3.0 36.63 0.00 0.01 83 1009.5
20260504020305 51 288 0.0 2.0 36.63 0.00 0.01 84 1009.4
20260504015301 51 0 0.0 0.0 36.63 0.00 0.01 83 1009.4
20260504014303 51 284 1.0 2.0 36.63 0.00 0.01 81 1009.3
20260504013303 50 273 2.0 2.0 36.63 0.00 0.01 84 1009.3
20260504012304 51 0 0.0 0.0 36.63 0.00 0.01 84 1009.3
20260504011301 52 0 0.0 0.0 36.63 0.00 0.01 87 1009.0
20260504010307 52 0 0.0 0.0 36.63 0.00 0.01 85 1008.9
20260504005301 53 0 0.0 0.0 36.63 0.00 0.01 84 1008.9
20260504004303 53 0 0.0 0.0 36.63 0.00 0.01 80 1008.8
20260504003304 54 0 0.0 0.0 36.63 0.00 0.01 75 1008.5
20260504002304 55 0 0.0 0.0 36.63 0.00 0.01 70 1008.5
20260504001301 55 0 0.0 0.0 36.63 0.00 0.01 68 1008.3
20260504000303 56 0 0.0 0.0 36.63 0.00 0.01 66 1008.2
20260503235301 56 0 0.0 0.0 36.63 0.00 0.01 67 1008.0
20260503234303 57 267 2.0 2.0 36.63 0.00 0.01 65 1007.9
20260503233304 57 280 2.0 3.0 36.63 0.00 0.01 63 1007.9
20260503232305 58 262 5.0 9.0 36.63 0.00 0.01 63 1007.9
20260503231301 58 260 5.0 9.0 36.63 0.00 0.01 62 1007.9
20260503230308 58 242 2.0 5.0 36.63 0.00 0.01 63 1007.9
20260503225304 58 193 2.0 6.0 36.63 0.00 0.01 61 1007.7
20260503224305 58 264 6.0 10.0 36.63 0.00 0.01 61 1007.7
20260503223303 58 260 7.0 11.0 36.63 0.00 0.01 61 1007.7
20260503222304 58 300 7.0 11.0 36.63 0.00 0.01 60 1007.8
20260503221303 57 253 10.0 15.0 36.63 0.00 0.01 61 1007.8
20260503220310 57 252 7.0 13.0 36.63 0.00 0.01 62 1007.9
20260503215304 57 253 8.0 16.0 36.63 0.00 0.01 62 1007.9
20260503214303 57 256 10.0 19.0 36.63 0.00 0.01 62 1007.8